< < Back
Terminal Aerodrome Forecast


Current Version              Previous Versions:   1  2  3  4  5  6  7  8  9  

Terminal Aerodrome Forecast

978
FTUS42 KGSP 052323
TAFAVL
TAF
KAVL 052323Z 0600/0624 34007KT P6SM FEW250
     FM060400 34003KT P6SM SCT250
     FM061500 35007KT P6SM BKN200=

Latest METAR

391
SAUS70 KWBC 062000
MTRAVL
METAR KAVL 061954Z 35010G18KT 10SM CLR 07/M14 A3025 RMK AO2 SLP252
T00671139


USA.gov is the U.S. government's official web portal to all federal, state and local government web resources and services.